NOAA NWS Hourly Roundups by Site

Regional Weather Roundup for Phoenix, AZ

To Select Another Site Choose from List

Select Site:  

000
ASUS45 KPSR 312210
RWRAZ

ARIZONA HOURLY REGIONAL WEATHER ROUNDUP
NATIONAL WEATHER SERVICE PHOENIX AZ
300 PM MST TUE MAR 31 2020

NOTE: FAIR INDICATES FEW OR NO CLOUDS BELOW 12,000 FEET WITH NO
SIGNIFICANT WEATHER AND/OR OBSTRUCTIONS TO VISIBILITY.

AZZ001>003-036-312300-
NORTHWEST ARIZONA

CITY           SKY/WX    TMP DP  RH WIND       PRES   REMARKS
BULLHEAD CITY  PTSUNNY   79  27  14 W10       29.94F
KINGMAN        FAIR      70  28  21 SW13      30.02F
$$

AZZ004>008-015-016-018-312300-
NORTH CENTRAL ARIZONA

CITY           SKY/WX    TMP DP  RH WIND       PRES   REMARKS
GRAND CANYON   FAIR      63  23  21 W10       30.10F
WILLIAMS       FAIR      63  18  17 NW6       30.11F
PRESCOTT       FAIR      65  22  19 NW5       30.06F
FLAGSTAFF      FAIR      59  26  28 SW13      30.11F
PAYSON         FAIR      64  27  24 VRB6G14   30.08F
PAGE           FAIR      71  22  15 E6        29.97F
$$

AZZ009>014-017-312300-
NORTHEAST ARIZONA

CITY           SKY/WX    TMP DP  RH WIND       PRES   REMARKS
WINSLOW        FAIR      68  21  16 CALM      30.05F
SAINT JOHNS    FAIR      68  17  14 NW10      30.05F
WINDOW ROCK    FAIR      66  16  14 NW9       30.09F
SHOW LOW       FAIR      68  16  13 SW12      30.10F
$$

AZZ540-542>544-546-548-312300-
GREATER PHOENIX AREA

CITY           SKY/WX    TMP DP  RH WIND       PRES   REMARKS
PHOENIX        CLOUDY    78  34  20 NW5       29.90F
BUCKEYE        SUNNY     79  39  24 CALM      29.92F
LUKE AFB       FAIR      80  32  18 CALM      29.89F
DEER VALLEY    FAIR      78  34  20 VRB5      29.92F
SCOTTSDALE     FAIR      80  33  18 CALM      29.93F
MESA-FALCON    FAIR      77  35  21 VRB5      29.92F
MESA-GATEWAY   PTSUNNY   77  36  22 NW3       29.93F
CHANDLER       PTSUNNY   77  32  19 MISG      29.92F
$$

AZZ539-553-312300-
SOUTHWEST MARICOPA COUNTY AND PINAL COUNTY

CITY           SKY/WX    TMP DP  RH WIND       PRES   REMARKS
CASA GRANDE    FAIR      77  33  20 N5        29.93F
GILA BEND      CLOUDY    77  36  22 N7        29.91F
$$

AZZ503-504-507>509-312300-
SOUTHEAST ARIZONA

CITY           SKY/WX    TMP DP  RH WIND       PRES   REMARKS
TUCSON         FAIR      82  21  10 N8        29.95F
DAVIS-MONTHAN  PTSUNNY   80  21  11 N10       29.93F
RYAN FIELD     SUNNY     79  23  12 NW8       29.95F
NOGALES        FAIR      79  18  10 SW5       29.98F
SIERRA VISTA   CLOUDY    74  14  10 N3        30.04F
DOUGLAS        FAIR      75  22  13 S6        30.01F
SAFFORD        FAIR      77  28  16 VRB6      29.97F
$$

AZZ532-312300-
SOUTHWEST ARIZONA

CITY           SKY/WX    TMP DP  RH WIND       PRES   REMARKS
YUMA           CLOUDY    77  41  27 W9        29.92F
$$

CAZ041-043-047-048-061-525>527-560>570-312300-
SOUTHERN CALIFORNIA

CITY           SKY/WX    TMP DP  RH WIND       PRES   REMARKS
DOWNTOWN L.A.  FAIR      77  49  37 CALM      29.94F
L.A. AIRPORT   PTSUNNY   69  49  48 W14       29.96F
SAN DIEGO      CLOUDY    66  56  70 NW7       29.98F
BURBANK        FAIR      77  42  28 S7        29.94F
ONTARIO        CLOUDY    77  40  26 S6        29.95F
RIVERSIDE      FAIR      77  41  27 SW7       29.94F
PALM SPRINGS   FAIR      81  32  17 E9        29.95F
EL CENTRO NAS  PTSUNNY   78  31  17 SW5       29.94F
IMPERIAL       FAIR      77  32  19 CALM      29.92F
BLYTHE         FAIR      79  31  17 E5        29.94F
NEEDLES        FAIR      79  30  16 NE3       29.94F
$$

NVZ020-UTZ003-312300-
SOUTHERN NEVADA-UTAH

CITY           SKY/WX    TMP DP  RH WIND       PRES   REMARKS
LAS VEGAS      PTSUNNY   74  27  17 VRB5      29.98F
SALT LAKE CITY PTSUNNY   65  26  23 SW14      29.88F
$$

NMZ009-TXZ055-312300-
NEW MEXICO-WEST TEXAS

CITY           SKY/WX    TMP DP  RH WIND       PRES   REMARKS
ALBUQUERQUE    PTSUNNY   65  17  15 SW8       30.06F
EL PASO        PTSUNNY   75  15  10 CALM      30.02F
$$


........................KEY........................
SKY/WX - SKY CONDITION/WEATHER
TMP    - TEMPERATURE IN FAHRENHEIT
DP     - DEW POINT IN FAHRENHEIT
RH     - RELATIVE HUMIDITY IN PERCENT
WIND   - DIRECTION AND SPEED IN MILES PER HOUR (MPH)
VRB    - VARIABLE WIND DIRECTION
PRES   - MEAN SEA LEVEL PRESSURE IN INCHES OF MERCURY
         F - FALLING PRESSURE   R - RISING PRESSURE
         S - STEADY PRESSURE
VSB    - VISIBILITY IN MILES
HX     - HEAT INDEX IN FAHRENHEIT
WCI    - WIND CHILL INDEX IN FAHRENHEIT
TC     - TEMPERATURE IN CELSIUS WHICH IS ALSO KNOWN AS
         TEMPERATURE IN CENTIGRADE
AFB    - AIR FORCE BASE
         LUKE AFB IS LUKE AIR FORCE BASE
         DAVIS-MONTHAN IS DAVIS-MONTHAN AIR FORCE BASE
NAS    - NAVAL AIR STATION
         EL CENTRO NAS IS EL CENTRO NAVAL AIR STATION
N/A    - NOT AVAILABLE



 

View Past Reports for Phoenix, AZ.

Products Courtesy of NOAA-NWS
NWS Information Parsing Script by Ken True at Saratoga Weather - Script by SE Lincoln Weather.